Regional Weather Roundup
Issued by NWS

Home | Current Version | Previous Version | Text Only | Print | Product List | Glossary Off
Versions: 1 2 3 4 5 6 7 8 9 10 11 12 13 14 15 16 17 18 19 20 21 22 23 24 25 26 27 28 29 30 31 32 33 34 35 36 37 38 39 40 41 42 43 44 45 46 47 48 49 50

000
ASUS43 KOAX 181110
RWRNE

WEATHER ROUNDUP FOR NEBRASKA
NATIONAL WEATHER SERVICE OMAHA NE
600 AM CDT FRI APR 18 2014

NOTES: SATELLITE DATA IS BEING USED TO AUGMENT CLOUD COVER ABOVE
       12000 FEET.
       "FAIR" INDICATES FEW OR NO CLOUDS BELOW 12,000 FEET WITH NO
       SIGNIFICANT WEATHER AND/OR OBSTRUCTIONS TO VISIBILITY.

  * THESE STATIONS DO NOT REPORT WEATHER SUCH AS RAIN...SNOW OR FOG.

NEZ001>004-019>022-054>056-181200-
NEBRASKA PANHANDLE

CITY           SKY/WX    TMP DP  RH WIND       PRES   REMARKS
SCOTTSBLUFF    CLEAR     39  33  79 E10       29.92S WCI  32
ALLIANCE       CLEAR     35  33  92 S8        29.92S WCI  29
CHADRON        PTCLDY    43  35  73 CALM      29.86S
KIMBALL        PTCLDY    36  32  84 SW10      29.95F WCI  29
SIDNEY         CLEAR     39  34  82 S15       29.97S WCI  31
$$

NEZ057>060-069>072-079>082-181200-
SOUTHWEST NEBRASKA

CITY           SKY/WX    TMP DP  RH WIND       PRES   REMARKS
NORTH PLATTE   CLEAR     41  36  82 S15       30.06F
IMPERIAL       CLEAR     39  33  79 S8        30.04F WCI  33
LEXINGTON      CLEAR     41  37  88 S12       30.13F
MCCOOK         CLEAR     38  36  92 S9        30.12F WCI  31
OGALLALA       CLEAR     38  34  86 SW6       30.02S WCI  33
$$

NEZ005>010-023>029-035>040-094-181200-
NORTH CENTRAL NEBRASKA

CITY           SKY/WX    TMP DP  RH WIND       PRES   REMARKS
VALENTINE      CLEAR     42  35  76 S16       29.97F
AINSWORTH      CLEAR     40  34  78 S17       30.01F WCI  31
BROKEN BOW     CLEAR     37  34  89 S14G24    30.10S WCI  28
O`NEILL        CLEAR     37  27  69 SE9       30.10F WCI  30
ORD            CLEAR     35  28  75 SE5       30.13F WCI  31
THEDFORD       CLEAR     42  37  81 S12G18    30.03S
$$

NEZ041-046>049-061>064-073>077-083>087-181200-
SOUTH CENTRAL NEBRASKA

CITY           SKY/WX    TMP DP  RH WIND       PRES   REMARKS
GRAND ISLAND   CLEAR     38  30  73 S10       30.19S WCI  31
AURORA         CLEAR     37  30  75 S9        30.20S WCI  31
HASTINGS       CLEAR     37  30  75 S8        30.18S WCI  31
HEBRON         CLEAR     34  29  85 CALM      30.23S HAZE
HOLDREGE       CLEAR     38  34  87 S12       30.16S WCI  30
KEARNEY *      CLEAR     37  34  87 S12       30.17S WCI  30
YORK           CLEAR     34  28  80 S9        30.22S WCI  26
$$

NEZ011>018-030>034-042>045-181200-
NORTHEAST NEBRASKA

CITY           SKY/WX    TMP DP  RH WIND       PRES   REMARKS
NORFOLK        CLEAR     36  27  69 SE8       30.19S WCI  30
ALBION         PTCLDY    33  27  76 SE7       30.18S WCI  27
BLAIR          CLEAR     37  28  68 SE5       30.24S WCI  34
COLUMBUS *     CLEAR     36  27  69 CALM      30.22S
FREMONT        FAIR      40  31  71 S6        30.24S HAZE
TEKAMAH        PTCLDY    25  19  78 S3        30.26R
$$

NEZ050>053-065>068-078-088>093-181200-
SOUTHEAST NEBRASKA

CITY           SKY/WX    TMP DP  RH WIND       PRES   REMARKS
LINCOLN        CLEAR     37  29  72 CALM      30.26R
OMAHA EPPLEY   PTCLDY    32  28  85 CALM      30.27S
BEATRICE       CLEAR     34  29  84 SE3       30.25S HAZE
FALLS CITY     CLEAR     29  27  92 SE3       30.27S FOG
NEBRASKA CITY  CLEAR     36  31  82 SW5       30.26S HAZE    WCI  32
PLATTSMOUTH    CLEAR     36  27  71 S5        30.25S WCI  32
$$

NEZ044-045-051>053-067-181200-
OMAHA AREA

CITY           SKY/WX    TMP DP  RH WIND       PRES   REMARKS
OMAHA EPPLEY   PTCLDY    32  28  85 CALM      30.27S
BLAIR          CLEAR     37  28  68 SE5       30.24S WCI  34
FREMONT        FAIR      40  31  71 S6        30.24S HAZE
MILLARD        CLEAR     33  29  85 CALM      30.25S
OFFUTT AFB     CLEAR     27  27  99 E2        30.26S
PLATTSMOUTH    CLEAR     36  27  71 S5        30.25S WCI  32
WAHOO          FAIR      31  24  77 CALM      30.24S
$$



USA.gov is the U.S. government's official web portal to all federal, state and local government web resources and services.